Powrót do katalogu

NEXTSAT-1

AktywnyNaukaSSO
NORAD 43811·PAYLOAD·🇰🇷 South Korea

Wystrzelony Dec 3, 2018 z Vandenberg Space Force Base

Loading…

Następne Przeloty (najbliższe 24 godziny)

TLE

ŚwieżeSource: Space-Track

Epoka: Sep 14, 2026, 12:34 UTC

1 43811U 18099BF  26257.52412805  .00002087  00000-0  13567-3 0  9995
2 43811  97.3995 297.0954 0012949  36.3698 323.8408 15.08998147425356

Śledź NEXTSAT-1 w czasie rzeczywistym z AllMySat

Download on the App Store